Regional Weather Roundup
Issued by NWS

Home | Current Version | Previous Version | Graphics & Text | Print | Product List | Glossary On
Versions: 1 2 3 4 5 6 7 8 9 10 11 12 13 14 15 16 17 18 19 20 21 22 23 24 25 26 27 28 29 30 31 32 33 34 35 36 37 38 39 40 41 42 43 44 45 46 47 48 49 50
000
ASUS43 KLSX 262259
RWRMO

WEATHER SUMMARY FOR MISSOURI
NATIONAL WEATHER SERVICE SPRINGFIELD MO
500 PM CST WED NOV 26 2014

NOTE: "FAIR" INDICATES FEW OR NO CLOUDS BELOW 12,000 FEET WITH NO
       SIGNIFICANT WEATHER AND/OR OBSTRUCTIONS TO VISIBILITY.
       CURRENT SKY AND/OR WEATHER CONDITIONS ARE NOT AVAILABLE FOR
       CHILLICOTHE AND FARMINGTON.

MOZ001>031-035>038-043-044-053-054-270000-
...NORTHERN AND WESTERN MISSOURI...

CITY           SKY/WX    TMP DP  RH WIND       PRES   REMARKS
KANSAS CTY INT CLOUDY    32  25  75 NW21G28   30.17R WCI  20
KANSAS C DTWN  CLOUDY    35  26  69 NW16      30.17R WCI  25
LEE`S SUMMIT   CLOUDY    34  27  75 NW17G28   30.15R WCI  23
ST JOSEPH      CLOUDY    32  24  72 NW21      30.21R WCI  20
CHILLICOTHE      N/A     33  28  81 NW12G24   30.12R WCI  24
KIRKSVILLE     LGT SNOW  32  32 100 N9        30.03R FOG     WCI  24

$$
MOZ066>068-077>081-088>096-101>105-270000-
...SOUTHWEST MISSOURI...

CITY           SKY/WX    TMP DP  RH WIND       PRES   REMARKS
SPRINGFIELD    CLOUDY    44  25  47 W17G25    30.09R
JOPLIN         CLOUDY    44  25  47 NW24G31   30.18R

$$
MOZ032>034-039>042-045>050-055>058-069>072-270000-
...CENTRAL MISSOURI...

CITY           SKY/WX    TMP DP  RH WIND       PRES   REMARKS
COLUMBIA       LGT RAIN  37  34  89 W14       30.03R WCI  28
JEFFERSON CITY LGT RAIN  39  34  82 W15       30.04R
ROLLA          CLOUDY    37  33  85 W15G23    30.01R WCI  28
SEDALIA        CLOUDY    37  31  78 W18G25    30.09R WCI  27
WHITEMAN AFB   DRIZZLE   36  32  87 NW18G24   30.10R WCI  25
WARRENSBURG    CLOUDY    36  30  80 W15G25    30.13R WCI  26
OSAGE BEACH    CLOUDY    41  28  60 W10G23    30.05R

$$
MOZ051-052-059>065-270000-
...EAST CENTRAL MISSOURI...

CITY           SKY/WX    TMP DP  RH WIND       PRES   REMARKS
ST LOUIS INTL  CLOUDY    34  32  92 CALM      30.03R FOG
SPIRIT OF STL  LGT SNOW  33  32  96 CALM      30.02R FOG
ST CHARLES     CLOUDY    33  32  96 E5        30.03R FOG     WCI  29

$$
MOZ072>076-082>087-097>100-106>115-270000-
...SOUTH CENTRAL AND SOUTHEAST MISSOURI...

CITY           SKY/WX    TMP DP  RH WIND       PRES   REMARKS
CAPE GIRARDEAU CLOUDY    37  35  92 W9        30.03R
FARMINGTON     CLOUDY    34  32  93 W5        30.01R WCI  30
POPLAR BLUFF   PTCLDY    38  32  79 NW7       30.03R
WEST PLAINS    MOCLDY    39  31  72 W6        30.05R

$$



USA.gov is the U.S. government's official web portal to all federal, state and local government web resources and services.